Check out our new BloomSky Weather System.

Active alerts


No alerts


Thunder radar  blitzortung!


Rain radar more information rain snow radar


Visit our other weather sites:

Template documentation
and downloads

And another site



Weather Underground History page Text

Daily Summary for June 21, 2017 Units:  Metric    English   Both
« Previous Day
Next Day »
Daily Weekly Monthly Yearly Custom
  High: Low: Average:
Temperature: 30.9 °C 24.5 °C 27.1 °C
Dew Point: 24.4 °C 22.2 °C 23.3 °C
Humidity: 94 % 63 % 81 %
Wind Speed: 24.1 km/h 0 km/h 7.4 km/h
Wind Gust: 33.8 km/h - -
Wind:- - West
Pressure: 1011.1 hPa 1002.3 hPa -
Precipitation: 0 mm    
Historical Graphs
 
 
Tabular Data for June 21, 2017
Time Temperature Dew Point Pressure Wind Wind Speed Wind Gust Humidity Rainfall Rate (Hourly)
00:00 27.3 °C 24.2 °C 1011.1 hPa NW 3.2 km/h 11.3 km/h 83 % 0 mm
00:05 27.3 °C 24.4 °C 1011.1 hPa NE 6.4 km/h 6.4 km/h 84 % 0 mm
00:10 27.2 °C 24.3 °C 1011.1 hPa NNW 1.6 km/h 6.4 km/h 84 % 0 mm
00:15 27.2 °C 24.3 °C 1011.1 hPa Calm   8 km/h 84 % 0 mm
00:20 27.1 °C 24.2 °C 1011.1 hPa West 3.2 km/h 8 km/h 84 % 0 mm
00:25 27.1 °C 24.2 °C 1011.1 hPa NNW 1.6 km/h 8 km/h 84 % 0 mm
00:30 27.1 °C 24.4 °C 1010.7 hPa NW 3.2 km/h 8 km/h 85 % 0 mm
00:35 27 °C 24.3 °C 1010.7 hPa Calm   8 km/h 85 % 0 mm
00:40 27 °C 24.3 °C 1010.7 hPa Calm   8 km/h 85 % 0 mm
00:45 26.9 °C 24.2 °C 1010.7 hPa NW 3.2 km/h 9.7 km/h 85 % 0 mm
00:50 26.9 °C 24 °C 1010.7 hPa NW 4.8 km/h 14.5 km/h 84 % 0 mm
00:55 26.9 °C 24 °C 1010.4 hPa Calm   14.5 km/h 84 % 0 mm
01:00 26.8 °C 24.1 °C 1010.4 hPa NNW 1.6 km/h 14.5 km/h 85 % 0 mm
01:05 26.8 °C 24.1 °C 1010.4 hPa North 4.8 km/h 14.5 km/h 85 % 0 mm
01:10 26.7 °C 24 °C 1010.4 hPa NNE 1.6 km/h 14.5 km/h 85 % 0 mm
01:15 26.7 °C 24 °C 1010.4 hPa WNW 3.2 km/h 14.5 km/h 85 % 0 mm
01:20 26.7 °C 24.2 °C 1010.4 hPa Calm   14.5 km/h 86 % 0 mm
01:25 26.6 °C 24.1 °C 1010.4 hPa Calm   11.3 km/h 86 % 0 mm
01:30 26.6 °C 24.1 °C 1010.4 hPa NW 1.6 km/h 11.3 km/h 86 % 0 mm
01:35 26.5 °C 24 °C 1010.4 hPa North 1.6 km/h 11.3 km/h 86 % 0 mm
01:40 26.4 °C 24.1 °C 1010.4 hPa NNW 4.8 km/h 11.3 km/h 87 % 0 mm
01:45 26.4 °C 24.1 °C 1010.4 hPa Calm   11.3 km/h 87 % 0 mm
01:50 26.4 °C 24.1 °C 1010.4 hPa NNW 1.6 km/h 11.3 km/h 87 % 0 mm
01:55 26.3 °C 24 °C 1010 hPa NNW 4.8 km/h 9.7 km/h 87 % 0 mm
02:00 26.3 °C 24 °C 1010 hPa West 1.6 km/h 9.7 km/h 87 % 0 mm
02:05 26.3 °C 24 °C 1010 hPa NNW 1.6 km/h 8 km/h 87 % 0 mm
02:10 26.2 °C 24.1 °C 1010 hPa NW 1.6 km/h 8 km/h 88 % 0 mm
02:15 26.2 °C 24.1 °C 1010 hPa NNE 6.4 km/h 9.7 km/h 88 % 0 mm
02:20 26.2 °C 24.1 °C 1010 hPa North 3.2 km/h 11.3 km/h 88 % 0 mm
02:25 26.2 °C 24.1 °C 1010 hPa Calm   11.3 km/h 88 % 0 mm
02:30 26.2 °C 24.1 °C 1009.7 hPa NE 3.2 km/h 12.9 km/h 88 % 0 mm
02:35 26.2 °C 24.1 °C 1009.7 hPa NNW 6.4 km/h 14.5 km/h 88 % 0 mm
02:40 26.2 °C 24.1 °C 1009.7 hPa NNW 6.4 km/h 14.5 km/h 88 % 0 mm
02:45 26.2 °C 24.1 °C 1009.4 hPa NW 6.4 km/h 14.5 km/h 88 % 0 mm
02:50 26.1 °C 24 °C 1009.4 hPa NNW 4.8 km/h 14.5 km/h 88 % 0 mm
02:53 26.1 °C 24.1 °C 1009.4 hPa NNE 6.4 km/h 14.5 km/h 89 % 0 mm
02:58 26 °C 24 °C 1009.4 hPa NW 3.2 km/h 11.3 km/h 89 % 0 mm
03:03 25.9 °C 23.9 °C 1009 hPa NW 3.2 km/h 11.3 km/h 89 % 0 mm
03:08 25.9 °C 23.9 °C 1009 hPa WNW 1.6 km/h 9.7 km/h 89 % 0 mm
03:13 25.9 °C 23.9 °C 1008.7 hPa NNW 6.4 km/h 9.7 km/h 89 % 0 mm
03:18 25.8 °C 23.8 °C 1008.7 hPa NW 1.6 km/h 9.7 km/h 89 % 0 mm
03:23 25.8 °C 23.8 °C 1008.7 hPa North 3.2 km/h 9.7 km/h 89 % 0 mm
03:28 25.7 °C 23.7 °C 1008.7 hPa NW 1.6 km/h 9.7 km/h 89 % 0 mm
03:33 25.7 °C 23.7 °C 1008.7 hPa NNW 6.4 km/h 9.7 km/h 89 % 0 mm
03:39 25.6 °C 23.6 °C 1008.4 hPa NNW 6.4 km/h 8 km/h 89 % 0 mm
03:44 25.6 °C 23.6 °C 1008.4 hPa NNW 3.2 km/h 14.5 km/h 89 % 0 mm
03:49 25.6 °C 23.6 °C 1008.4 hPa NW 3.2 km/h 14.5 km/h 89 % 0 mm
03:54 25.5 °C 23.7 °C 1008.4 hPa NNW 3.2 km/h 14.5 km/h 90 % 0 mm
03:59 25.4 °C 23.6 °C 1008.4 hPa North 3.2 km/h 9.7 km/h 90 % 0 mm
04:04 25.4 °C 23.6 °C 1008.4 hPa NNW 4.8 km/h 9.7 km/h 90 % 0 mm
04:09 25.4 °C 23.6 °C 1008.4 hPa NNW 1.6 km/h 9.7 km/h 90 % 0 mm
04:14 25.3 °C 23.5 °C 1008.4 hPa NNW 6.4 km/h 9.7 km/h 90 % 0 mm
04:19 25.3 °C 23.5 °C 1008.4 hPa Calm   8 km/h 90 % 0 mm
04:24 25.3 °C 23.5 °C 1008.4 hPa NW 1.6 km/h 8 km/h 90 % 0 mm
04:29 25.3 °C 23.5 °C 1008.4 hPa NNW 1.6 km/h 11.3 km/h 90 % 0 mm
04:34 25.2 °C 23.4 °C 1008.4 hPa NNW 3.2 km/h 11.3 km/h 90 % 0 mm
04:39 25.2 °C 23.4 °C 1008.4 hPa NNW 1.6 km/h 11.3 km/h 90 % 0 mm
04:44 25.2 °C 23.4 °C 1008.4 hPa WNW 1.6 km/h 9.7 km/h 90 % 0 mm
04:49 25.2 °C 23.4 °C 1008.4 hPa NW 1.6 km/h 12.9 km/h 90 % 0 mm
04:54 25.1 °C 23.3 °C 1008.4 hPa NW 3.2 km/h 12.9 km/h 90 % 0 mm
04:59 25.1 °C 23.3 °C 1008.4 hPa NNW 4.8 km/h 12.9 km/h 90 % 0 mm
05:04 25.1 °C 23.5 °C 1008.4 hPa NNW 3.2 km/h 8 km/h 91 % 0 mm
05:09 25 °C 23.4 °C 1008.4 hPa NNW 6.4 km/h 6.4 km/h 91 % 0 mm
05:14 25 °C 23.4 °C 1008.4 hPa North 3.2 km/h 9.7 km/h 91 % 0 mm
05:24 24.9 °C 23.3 °C 1008 hPa NW 6.4 km/h 9.7 km/h 91 % 0 mm
05:29 24.9 °C 23.5 °C 1008 hPa NW 3.2 km/h 9.7 km/h 92 % 0 mm
05:34 24.8 °C 23.4 °C 1008 hPa NNW 4.8 km/h 12.9 km/h 92 % 0 mm
05:39 24.8 °C 23.4 °C 1008 hPa NNW 4.8 km/h 12.9 km/h 92 % 0 mm
05:44 24.8 °C 23.4 °C 1008 hPa NW 6.4 km/h 12.9 km/h 92 % 0 mm
05:49 24.7 °C 23.3 °C 1008 hPa NNW 4.8 km/h 11.3 km/h 92 % 0 mm
05:54 24.7 °C 23.3 °C 1008 hPa NNW 3.2 km/h 12.9 km/h 92 % 0 mm
05:59 24.7 °C 23.3 °C 1008 hPa NNW 6.4 km/h 12.9 km/h 92 % 0 mm
06:04 24.7 °C 23.3 °C 1008 hPa North 4.8 km/h 12.9 km/h 92 % 0 mm
06:09 24.6 °C 23.2 °C 1008 hPa NNW 9.7 km/h 11.3 km/h 92 % 0 mm
06:14 24.6 °C 23.2 °C 1007.7 hPa WNW 4.8 km/h 11.3 km/h 92 % 0 mm
06:19 24.6 °C 23.2 °C 1008 hPa NW 8 km/h 12.9 km/h 92 % 0 mm
06:24 24.6 °C 23 °C 1008 hPa WNW 4.8 km/h 16.1 km/h 91 % 0 mm
06:29 24.6 °C 23 °C 1008 hPa NNW 6.4 km/h 16.1 km/h 91 % 0 mm
06:34 24.6 °C 22.8 °C 1008 hPa NNW 6.4 km/h 16.1 km/h 90 % 0 mm
06:39 24.6 °C 22.8 °C 1008 hPa NW 1.6 km/h 12.9 km/h 90 % 0 mm
06:44 24.6 °C 22.8 °C 1008 hPa NW 1.6 km/h 12.9 km/h 90 % 0 mm
06:49 24.6 °C 22.7 °C 1008 hPa NNW 8 km/h 12.9 km/h 89 % 0 mm
06:54 24.7 °C 22.8 °C 1008 hPa WNW 11.3 km/h 11.3 km/h 89 % 0 mm
06:59 24.7 °C 22.6 °C 1008 hPa NNW 3.2 km/h 14.5 km/h 88 % 0 mm
07:04 24.7 °C 22.6 °C 1008 hPa NW 4.8 km/h 14.5 km/h 88 % 0 mm
07:09 24.8 °C 22.7 °C 1007.7 hPa NW 4.8 km/h 14.5 km/h 88 % 0 mm
07:14 24.8 °C 22.7 °C 1008 hPa WNW 3.2 km/h 14.5 km/h 88 % 0 mm
07:19 24.8 °C 22.7 °C 1008 hPa NW 3.2 km/h 14.5 km/h 88 % 0 mm
07:24 24.9 °C 22.8 °C 1008 hPa WNW 4.8 km/h 14.5 km/h 88 % 0 mm
07:29 24.9 °C 22.6 °C 1008 hPa NNW 6.4 km/h 14.5 km/h 87 % 0 mm
07:34 24.9 °C 22.6 °C 1008 hPa NW 6.4 km/h 14.5 km/h 87 % 0 mm
07:39 25 °C 22.7 °C 1008 hPa North 9.7 km/h 14.5 km/h 87 % 0 mm
07:44 25.1 °C 22.8 °C 1008 hPa NNW 6.4 km/h 14.5 km/h 87 % 0 mm
07:47 25.1 °C 22.6 °C 1008 hPa NW 6.4 km/h 14.5 km/h 86 % 0 mm
07:52 25.1 °C 22.6 °C 1008 hPa NW 8 km/h 14.5 km/h 86 % 0 mm
07:57 25.1 °C 22.6 °C 1008 hPa NW 11.3 km/h 14.5 km/h 86 % 0 mm
08:02 25.2 °C 22.7 °C 1008 hPa NNW 8 km/h 12.9 km/h 86 % 0 mm
08:07 25.2 °C 22.7 °C 1007.7 hPa NNW 8 km/h 12.9 km/h 86 % 0 mm
08:12 25.2 °C 22.7 °C 1007.7 hPa WNW 3.2 km/h 12.9 km/h 86 % 0 mm
08:17 25.3 °C 22.8 °C 1007.7 hPa WNW 6.4 km/h 12.9 km/h 86 % 0 mm
08:22 25.3 °C 22.6 °C 1008 hPa NW 4.8 km/h 12.9 km/h 85 % 0 mm
08:27 25.4 °C 22.7 °C 1008 hPa West 8 km/h 14.5 km/h 85 % 0 mm
08:32 25.4 °C 22.7 °C 1008 hPa NW 4.8 km/h 14.5 km/h 85 % 0 mm
08:37 25.5 °C 22.6 °C 1008 hPa WNW 6.4 km/h 14.5 km/h 84 % 0 mm
08:42 25.6 °C 22.5 °C 1008 hPa NW 11.3 km/h 14.5 km/h 83 % 0 mm
08:47 25.6 °C 22.5 °C 1008 hPa NW 6.4 km/h 14.5 km/h 83 % 0 mm
08:52 25.7 °C 22.6 °C 1008 hPa WNW 4.8 km/h 22.5 km/h 83 % 0 mm
08:57 25.8 °C 22.7 °C 1008 hPa NNW 4.8 km/h 22.5 km/h 83 % 0 mm
09:03 25.8 °C 22.5 °C 1008 hPa NW 4.8 km/h 24.1 km/h 82 % 0 mm
09:08 25.8 °C 22.3 °C 1008 hPa NW 11.3 km/h 24.1 km/h 81 % 0 mm
09:13 25.8 °C 22.5 °C 1008 hPa South 9.7 km/h 24.1 km/h 82 % 0 mm
09:18 25.8 °C 22.5 °C 1008 hPa NNW 8 km/h 24.1 km/h 82 % 0 mm
09:23 25.8 °C 22.5 °C 1008 hPa NW 8 km/h 24.1 km/h 82 % 0 mm
09:28 25.8 °C 22.5 °C 1008 hPa SSW 3.2 km/h 24.1 km/h 82 % 0 mm
09:33 25.8 °C 22.5 °C 1008 hPa NW 11.3 km/h 20.9 km/h 82 % 0 mm
09:38 25.9 °C 22.6 °C 1007.7 hPa WSW 6.4 km/h 20.9 km/h 82 % 0 mm
09:43 25.9 °C 22.4 °C 1007.7 hPa WNW 12.9 km/h 20.9 km/h 81 % 0 mm
09:48 26 °C 22.5 °C 1007.7 hPa SW 3.2 km/h 17.7 km/h 81 % 0 mm
09:53 26.1 °C 22.6 °C 1007.7 hPa West 12.9 km/h 17.7 km/h 81 % 0 mm
09:58 26.1 °C 22.4 °C 1007.7 hPa NW 14.5 km/h 17.7 km/h 80 % 0 mm
10:03 26.2 °C 22.5 °C 1007.7 hPa SSW 3.2 km/h 25.7 km/h 80 % 0 mm
10:08 26.3 °C 22.6 °C 1007.7 hPa NNW 4.8 km/h 25.7 km/h 80 % 0 mm
10:13 26.4 °C 22.7 °C 1007.7 hPa NNW 12.9 km/h 25.7 km/h 80 % 0 mm
10:18 26.6 °C 22.7 °C 1007.7 hPa West 9.7 km/h 27.4 km/h 79 % 0 mm
10:23 26.8 °C 22.8 °C 1007.3 hPa WNW 1.6 km/h 27.4 km/h 79 % 0 mm
10:28 26.9 °C 22.5 °C 1007.3 hPa NNW 11.3 km/h 27.4 km/h 77 % 0 mm
10:33 27.1 °C 22.9 °C 1007.3 hPa NW 11.3 km/h 19.3 km/h 78 % 0 mm
10:38 27.4 °C 23 °C 1007.3 hPa North 20.9 km/h 20.9 km/h 77 % 0 mm
10:43 27.6 °C 23 °C 1007 hPa ENE 11.3 km/h 20.9 km/h 76 % 0 mm
10:48 27.7 °C 22.9 °C 1007 hPa North 17.7 km/h 22.5 km/h 75 % 0 mm
10:53 28 °C 23.2 °C 1007 hPa NNE 8 km/h 22.5 km/h 75 % 0 mm
10:54 28.1 °C 23.2 °C 1007 hPa NW 11.3 km/h 22.5 km/h 75 % 0 mm
10:59 28.3 °C 23.2 °C 1007 hPa North 6.4 km/h 22.5 km/h 74 % 0 mm
11:03 28.6 °C 23.3 °C 1007 hPa NW 9.7 km/h 20.9 km/h 73 % 0 mm
11:08 28.5 °C 23 °C 1007 hPa NNW 9.7 km/h 22.5 km/h 72 % 0 mm
11:13 28.4 °C 22.9 °C 1007.3 hPa NW 6.4 km/h 24.1 km/h 72 % 0 mm
11:19 28.5 °C 23.2 °C 1007.3 hPa WNW 4.8 km/h 24.1 km/h 73 % 0 mm
11:24 28.7 °C 22.9 °C 1007 hPa WNW 8 km/h 24.1 km/h 71 % 0 mm
11:29 28.9 °C 23.1 °C 1007 hPa NNE 9.7 km/h 22.5 km/h 71 % 0 mm
11:34 28.9 °C 23.1 °C 1007 hPa NW 16.1 km/h 22.5 km/h 71 % 0 mm
11:39 29.2 °C 23.2 °C 1007.3 hPa NNW 14.5 km/h 22.5 km/h 70 % 0 mm
11:44 29.3 °C 22.8 °C 1007 hPa NNW 9.7 km/h 17.7 km/h 68 % 0 mm
11:49 29.4 °C 23.1 °C 1007 hPa NNW 8 km/h 17.7 km/h 69 % 0 mm
11:54 29.7 °C 22.9 °C 1006.7 hPa North 11.3 km/h 17.7 km/h 67 % 0 mm
11:59 29.7 °C 22.9 °C 1006.7 hPa NNW 6.4 km/h 22.5 km/h 67 % 0 mm
12:04 29.9 °C 23.3 °C 1006.7 hPa NW 4.8 km/h 22.5 km/h 68 % 0 mm
12:09 29.9 °C 22.3 °C 1006.7 hPa SSE 11.3 km/h 22.5 km/h 64 % 0 mm
12:14 29.5 °C 22.2 °C 1006.7 hPa NE 9.7 km/h 29 km/h 65 % 0 mm
12:19 29.7 °C 22.9 °C 1006.7 hPa WNW 9.7 km/h 29 km/h 67 % 0 mm
12:24 30.3 °C 23 °C 1006.7 hPa NNE 4.8 km/h 29 km/h 65 % 0 mm
12:29 30.6 °C 23.3 °C 1006.7 hPa NW 4.8 km/h 19.3 km/h 65 % 0 mm
12:34 30.4 °C 22.8 °C 1006.7 hPa West 1.6 km/h 20.9 km/h 64 % 0 mm
12:39 30.3 °C 23 °C 1006.7 hPa NNW 9.7 km/h 20.9 km/h 65 % 0 mm
12:44 30.4 °C 23.1 °C 1006.3 hPa NW 6.4 km/h 22.5 km/h 65 % 0 mm
12:49 30.6 °C 23.3 °C 1006.7 hPa NNW 12.9 km/h 22.5 km/h 65 % 0 mm
12:54 30.7 °C 23.1 °C 1006.7 hPa NW 8 km/h 22.5 km/h 64 % 0 mm
12:59 30.6 °C 22.7 °C 1006.7 hPa NE 8 km/h 25.7 km/h 63 % 0 mm
13:04 30.4 °C 22.8 °C 1006.7 hPa NNW 12.9 km/h 25.7 km/h 64 % 0 mm
13:09 30.5 °C 23.2 °C 1006.7 hPa North 16.1 km/h 25.7 km/h 65 % 0 mm
13:10 30.5 °C 22.9 °C 1006.7 hPa NNW 19.3 km/h 20.9 km/h 64 % 0 mm
13:15 30.3 °C 22.7 °C 1006.3 hPa NNE 14.5 km/h 33.8 km/h 64 % 0 mm
13:20 30.5 °C 23.2 °C 1006.3 hPa NNW 8 km/h 33.8 km/h 65 % 0 mm
13:25 30.5 °C 23.2 °C 1006.3 hPa NW 11.3 km/h 33.8 km/h 65 % 0 mm
13:30 30.3 °C 22.7 °C 1006.3 hPa NE 8 km/h 30.6 km/h 64 % 0 mm
13:35 30.4 °C 22.8 °C 1006.3 hPa ENE 4.8 km/h 30.6 km/h 64 % 0 mm
13:40 30.6 °C 23 °C 1006.3 hPa NW 4.8 km/h 30.6 km/h 64 % 0 mm
13:45 30.9 °C 23.3 °C 1006.3 hPa NW 6.4 km/h 24.1 km/h 64 % 0 mm
13:50 30.7 °C 22.8 °C 1006 hPa NNW 6.4 km/h 24.1 km/h 63 % 0 mm
13:55 30.7 °C 22.8 °C 1005.6 hPa NW 9.7 km/h 24.1 km/h 63 % 0 mm
14:00 30.7 °C 23.1 °C 1005.6 hPa NE 6.4 km/h 24.1 km/h 64 % 0 mm
14:05 30.8 °C 23.5 °C 1005.6 hPa WNW 1.6 km/h 24.1 km/h 65 % 0 mm
14:10 30.8 °C 22.9 °C 1005.6 hPa WNW 11.3 km/h 20.9 km/h 63 % 0 mm
14:15 30.4 °C 22.8 °C 1005.6 hPa NW 14.5 km/h 20.9 km/h 64 % 0 mm
14:20 30.3 °C 23 °C 1005.6 hPa North 6.4 km/h 20.9 km/h 65 % 0 mm
14:25 30.2 °C 22.9 °C 1005.6 hPa NNW 12.9 km/h 20.9 km/h 65 % 0 mm
14:30 29.9 °C 22.6 °C 1005.6 hPa West 12.9 km/h 22.5 km/h 65 % 0 mm
14:35 29.8 °C 22.8 °C 1005.6 hPa North 14.5 km/h 22.5 km/h 66 % 0 mm
14:41 29.6 °C 22.6 °C 1005.3 hPa NW 3.2 km/h 24.1 km/h 66 % 0 mm
14:46 29.4 °C 22.6 °C 1005.6 hPa NE 9.7 km/h 24.1 km/h 67 % 0 mm
14:51 29.3 °C 22.5 °C 1005.3 hPa NNW 4.8 km/h 24.1 km/h 67 % 0 mm
14:56 29.3 °C 22.8 °C 1005.3 hPa NNW 8 km/h 20.9 km/h 68 % 0 mm
15:01 29.3 °C 23 °C 1005.3 hPa West 4.8 km/h 17.7 km/h 69 % 0 mm
15:06 29.4 °C 22.9 °C 1005 hPa WNW 8 km/h 22.5 km/h 68 % 0 mm
15:11 29.2 °C 22.7 °C 1005 hPa WNW 12.9 km/h 24.1 km/h 68 % 0 mm
15:16 29.1 °C 22.8 °C 1005 hPa North 4.8 km/h 24.1 km/h 69 % 0 mm
15:21 28.9 °C 22.6 °C 1005 hPa NNE 20.9 km/h 24.1 km/h 69 % 0 mm
15:26 28.8 °C 22.8 °C 1005 hPa NE 11.3 km/h 22.5 km/h 70 % 0 mm
15:31 28.7 °C 22.9 °C 1005 hPa West 6.4 km/h 22.5 km/h 71 % 0 mm
15:36 28.7 °C 22.9 °C 1005 hPa NNW 8 km/h 22.5 km/h 71 % 0 mm
15:41 28.8 °C 23.2 °C 1005 hPa WNW 4.8 km/h 25.7 km/h 72 % 0 mm
15:46 29.1 °C 23.3 °C 1005 hPa NW 11.3 km/h 25.7 km/h 71 % 0 mm
15:51 29.1 °C 23.3 °C 1005 hPa NW 6.4 km/h 25.7 km/h 71 % 0 mm
15:56 29.1 °C 23.3 °C 1005 hPa NNE 17.7 km/h 17.7 km/h 71 % 0 mm
16:01 28.8 °C 23.2 °C 1005 hPa North 16.1 km/h 22.5 km/h 72 % 0 mm
16:02 28.7 °C 23.1 °C 1004.6 hPa North 16.1 km/h 22.5 km/h 72 % 0 mm
16:07 28.7 °C 23.4 °C 1004.6 hPa NNW 9.7 km/h 22.5 km/h 73 % 0 mm
16:12 28.7 °C 23.4 °C 1004.6 hPa NNW 11.3 km/h 22.5 km/h 73 % 0 mm
16:17 28.6 °C 23.3 °C 1004.3 hPa NNW 8 km/h 22.5 km/h 73 % 0 mm
16:22 28.6 °C 23.3 °C 1004.3 hPa NW 3.2 km/h 22.5 km/h 73 % 0 mm
16:27 28.6 °C 23.5 °C 1004.3 hPa NW 8 km/h 24.1 km/h 74 % 0 mm
16:32 28.7 °C 23.6 °C 1004.3 hPa NNW 9.7 km/h 24.1 km/h 74 % 0 mm
16:37 28.7 °C 23.6 °C 1003.9 hPa NNW 11.3 km/h 24.1 km/h 74 % 0 mm
16:38 28.7 °C 23.6 °C 1003.9 hPa NW 8 km/h 24.1 km/h 74 % 0 mm
16:43 28.7 °C 23.6 °C 1003.9 hPa NW 19.3 km/h 24.1 km/h 74 % 0 mm
16:48 28.7 °C 23.6 °C 1003.9 hPa North 9.7 km/h 24.1 km/h 74 % 0 mm
16:53 28.7 °C 23.6 °C 1003.9 hPa NW 12.9 km/h 24.1 km/h 74 % 0 mm
16:58 28.7 °C 23.6 °C 1003.9 hPa NW 6.4 km/h 24.1 km/h 74 % 0 mm
17:03 28.8 °C 23.7 °C 1003.9 hPa WNW 3.2 km/h 25.7 km/h 74 % 0 mm
17:05 28.9 °C 23.8 °C 1003.9 hPa NNW 9.7 km/h 25.7 km/h 74 % 0 mm
17:10 28.9 °C 23.8 °C 1003.6 hPa NNW 9.7 km/h 25.7 km/h 74 % 0 mm
17:15 28.9 °C 23.8 °C 1003.6 hPa ENE 20.9 km/h 25.7 km/h 74 % 0 mm
17:20 28.9 °C 23.8 °C 1003.6 hPa NW 8 km/h 20.9 km/h 74 % 0 mm
17:25 28.9 °C 23.6 °C 1003.6 hPa NW 16.1 km/h 20.9 km/h 73 % 0 mm
17:30 28.9 °C 23.8 °C 1003.6 hPa North 12.9 km/h 20.9 km/h 74 % 0 mm
17:34 28.9 °C 23.8 °C 1003.6 hPa NNW 17.7 km/h 30.6 km/h 74 % 0 mm
17:36 28.9 °C 23.6 °C 1003.6 hPa WNW 16.1 km/h 30.6 km/h 73 % 0 mm
17:41 28.8 °C 23.7 °C 1003.6 hPa NNW 11.3 km/h 30.6 km/h 74 % 0 mm
17:46 28.7 °C 23.6 °C 1003.6 hPa NNW 14.5 km/h 27.4 km/h 74 % 0 mm
17:51 28.7 °C 23.6 °C 1003.6 hPa NW 16.1 km/h 29 km/h 74 % 0 mm
17:56 28.7 °C 23.8 °C 1003.6 hPa NNW 6.4 km/h 29 km/h 75 % 0 mm
18:01 28.7 °C 23.8 °C 1003.6 hPa North 3.2 km/h 29 km/h 75 % 0 mm
18:06 28.7 °C 23.8 °C 1003.6 hPa NW 12.9 km/h 24.1 km/h 75 % 0 mm
18:11 28.6 °C 23.7 °C 1003.6 hPa West 4.8 km/h 20.9 km/h 75 % 0 mm
18:16 28.6 °C 23.9 °C 1003.6 hPa NW 12.9 km/h 20.9 km/h 76 % 0 mm
18:21 28.6 °C 23.9 °C 1003.6 hPa NW 6.4 km/h 20.9 km/h 76 % 0 mm
18:26 28.6 °C 23.7 °C 1003.6 hPa NW 12.9 km/h 20.9 km/h 75 % 0 mm
18:31 28.4 °C 23.8 °C 1003.6 hPa NNE 12.9 km/h 24.1 km/h 76 % 0 mm
18:36 28.4 °C 23.8 °C 1003.6 hPa ENE 8 km/h 24.1 km/h 76 % 0 mm
18:41 28.3 °C 23.7 °C 1003.6 hPa North 4.8 km/h 24.1 km/h 76 % 0 mm
18:46 28.3 °C 23.7 °C 1003.6 hPa NNE 4.8 km/h 19.3 km/h 76 % 0 mm
18:51 28.2 °C 23.6 °C 1003.9 hPa North 9.7 km/h 19.3 km/h 76 % 0 mm
18:56 28 °C 23.6 °C 1003.6 hPa NNW 8 km/h 19.3 km/h 77 % 0 mm
19:01 27.7 °C 23.9 °C 1003.6 hPa NNE 8 km/h 19.3 km/h 80 % 0 mm
19:06 27.1 °C 23.8 °C 1003.6 hPa NW 6.4 km/h 17.7 km/h 82 % 0 mm
19:11 26.9 °C 23.8 °C 1003.6 hPa NNE 1.6 km/h 20.9 km/h 83 % 0 mm
19:16 26.9 °C 23.8 °C 1003.6 hPa North 8 km/h 20.9 km/h 83 % 0 mm
19:21 26.9 °C 23.8 °C 1003.6 hPa NW 1.6 km/h 20.9 km/h 83 % 0 mm
19:26 26.9 °C 23.6 °C 1003.6 hPa NNE 8 km/h 16.1 km/h 82 % 0 mm
19:31 26.9 °C 23.6 °C 1003.6 hPa NW 6.4 km/h 22.5 km/h 82 % 0 mm
19:36 26.9 °C 23.4 °C 1003.6 hPa NNW 8 km/h 25.7 km/h 81 % 0 mm
19:42 26.9 °C 23.4 °C 1003.3 hPa North 3.2 km/h 25.7 km/h 81 % 0 mm
19:47 26.9 °C 23.4 °C 1003.3 hPa NW 8 km/h 25.7 km/h 81 % 0 mm
19:52 26.9 °C 23.4 °C 1003.3 hPa NNW 9.7 km/h 19.3 km/h 81 % 0 mm
19:57 26.8 °C 23.3 °C 1002.9 hPa WNW 16.1 km/h 17.7 km/h 81 % 0 mm
20:02 26.8 °C 23.3 °C 1002.9 hPa NW 3.2 km/h 17.7 km/h 81 % 0 mm
20:07 26.8 °C 23.3 °C 1002.9 hPa NW 4.8 km/h 17.7 km/h 81 % 0 mm
20:08 26.8 °C 23.3 °C 1002.9 hPa NNW 3.2 km/h 17.7 km/h 81 % 0 mm
20:13 26.7 °C 23.4 °C 1002.9 hPa WNW 1.6 km/h 22.5 km/h 82 % 0 mm
20:18 26.6 °C 23.3 °C 1002.9 hPa NW 4.8 km/h 22.5 km/h 82 % 0 mm
20:23 26.4 °C 23.3 °C 1002.9 hPa NW 19.3 km/h 22.5 km/h 83 % 0 mm
20:27 26.3 °C 23.4 °C 1002.9 hPa NW 11.3 km/h 22.5 km/h 84 % 0 mm
20:32 26.2 °C 23.3 °C 1002.9 hPa NNW 16.1 km/h 22.5 km/h 84 % 0 mm
20:36 26.1 °C 23.2 °C 1002.9 hPa NW 9.7 km/h 22.5 km/h 84 % 0 mm
20:41 26.1 °C 23.2 °C 1002.9 hPa NW 3.2 km/h 24.1 km/h 84 % 0 mm
20:46 26.1 °C 23.4 °C 1002.9 hPa NNE 3.2 km/h 24.1 km/h 85 % 0 mm
20:51 26.1 °C 23.4 °C 1002.9 hPa NW 11.3 km/h 24.1 km/h 85 % 0 mm
20:56 26.1 °C 23.4 °C 1002.9 hPa NW 4.8 km/h 20.9 km/h 85 % 0 mm
21:01 26.1 °C 23.4 °C 1002.9 hPa WNW 3.2 km/h 20.9 km/h 85 % 0 mm
21:06 26.1 °C 23.4 °C 1002.9 hPa NNW 9.7 km/h 20.9 km/h 85 % 0 mm
21:11 26.1 °C 23.4 °C 1002.6 hPa NW 9.7 km/h 20.9 km/h 85 % 0 mm
21:16 26.1 °C 23.4 °C 1002.6 hPa NNW 8 km/h 20.9 km/h 85 % 0 mm
21:21 26.1 °C 23.4 °C 1002.6 hPa NNW 24.1 km/h 24.1 km/h 85 % 0 mm
21:26 26.1 °C 23.4 °C 1002.9 hPa SW 1.6 km/h 24.1 km/h 85 % 0 mm
21:31 26 °C 23.1 °C 1002.9 hPa NNW 9.7 km/h 27.4 km/h 84 % 0 mm
21:36 26.1 °C 23.2 °C 1002.9 hPa North 12.9 km/h 27.4 km/h 84 % 0 mm
21:41 26 °C 23.3 °C 1002.9 hPa NNE 6.4 km/h 27.4 km/h 85 % 0 mm
21:46 26 °C 23.1 °C 1002.9 hPa NW 6.4 km/h 19.3 km/h 84 % 0 mm
21:51 26 °C 23.1 °C 1002.9 hPa NW 3.2 km/h 19.3 km/h 84 % 0 mm
21:56 26 °C 23.1 °C 1002.9 hPa North 17.7 km/h 17.7 km/h 84 % 0 mm
22:01 26 °C 23.3 °C 1002.9 hPa NNW 8 km/h 24.1 km/h 85 % 0 mm
22:06 25.8 °C 23.3 °C 1002.9 hPa NNW 11.3 km/h 24.1 km/h 86 % 0 mm
22:11 25.6 °C 23.5 °C 1002.9 hPa NNW 9.7 km/h 24.1 km/h 88 % 0 mm
22:16 25.4 °C 23.5 °C 1002.9 hPa WNW 11.3 km/h 20.9 km/h 89 % 0 mm
22:21 25.3 °C 23.4 °C 1002.9 hPa North 8 km/h 19.3 km/h 89 % 0 mm
22:26 25.3 °C 23.4 °C 1002.9 hPa NW 6.4 km/h 24.1 km/h 89 % 0 mm
22:31 25.3 °C 23.4 °C 1002.9 hPa NNW 8 km/h 24.1 km/h 89 % 0 mm
22:36 25.3 °C 23.2 °C 1002.9 hPa NNW 9.7 km/h 24.1 km/h 88 % 0 mm
22:42 25.4 °C 23.3 °C 1002.9 hPa NW 6.4 km/h 25.7 km/h 88 % 0 mm
22:47 25.4 °C 23.3 °C 1002.9 hPa NNW 9.7 km/h 25.7 km/h 88 % 0 mm
22:52 25.4 °C 23.3 °C 1002.9 hPa West 4.8 km/h 25.7 km/h 88 % 0 mm
22:57 25.4 °C 23.3 °C 1002.9 hPa WNW 6.4 km/h 20.9 km/h 88 % 0 mm
23:02 25.3 °C 23.4 °C 1002.9 hPa NW 11.3 km/h 20.9 km/h 89 % 0 mm
23:07 25.2 °C 23.3 °C 1002.9 hPa NW 11.3 km/h 24.1 km/h 89 % 0 mm
23:12 25.1 °C 23.3 °C 1002.6 hPa NW 11.3 km/h 24.1 km/h 90 % 0 mm
23:17 24.9 °C 23.3 °C 1002.6 hPa NW 9.7 km/h 24.1 km/h 91 % 0 mm
23:22 24.8 °C 23.2 °C 1002.6 hPa NW 6.4 km/h 20.9 km/h 91 % 0 mm
23:27 24.8 °C 23.4 °C 1002.3 hPa NNW 11.3 km/h 16.1 km/h 92 % 0 mm
23:32 24.7 °C 23.3 °C 1002.6 hPa NW 6.4 km/h 16.1 km/h 92 % 0 mm
23:37 24.6 °C 23.4 °C 1002.6 hPa NNE 8 km/h 16.1 km/h 93 % 0 mm
23:42 24.6 °C 23.4 °C 1002.6 hPa WNW 6.4 km/h 16.1 km/h 93 % 0 mm
23:47 24.6 °C 23.4 °C 1002.6 hPa WNW 8 km/h 16.1 km/h 93 % 0 mm
23:52 24.5 °C 23.3 °C 1002.6 hPa NW 8 km/h 16.1 km/h 93 % 0 mm
23:57 24.5 °C 23.5 °C 1002.6 hPa NW 6.4 km/h 16.1 km/h 94 % 0 mm
Spring, Texas: Villages of Bridgestone
Compliments of Weather Underground - 2.75 mb

Script developed by  Jim McMurry - jmcmurry@mwt.net Adapted for the template by  Wim van der Kuil - Leuven-Template.eu

You find our weather info also at:

UK Metoffice

WeatherCloud

Weather Underground

Mid-South Weather Network

AWEKAS

Citizen Weather Observer Program (CWOP)

HAMweather, WeatherForYou, PWS Weather

Equipment we use:

Weather-station
Davis Vantage Vue

Weather-program
Meteohub

Weather-server
Debian 7.9 x86 (Guest)

Provider
DreamHost

Davis Vantage Vue

Meteohub

Debian 7.9 x86 (Guest)

DreamHost